COSMOS 2251 DEB, 37971

Orbit data source: Space-Track

COSMOS 2251 DEB, 37971 is space debris in LEO originally from a launch on Wed, 16 Jun 1993 UTC launched from the Plesetsk Missile And Space Complex (PKMTR). The debris from Iridium 33, an American commercial communications satellite, has been tracked extensively since its accidental collision with the defunct Russian satellite Cosmos 2251 in 2009. This event, occurring at high speed in low Earth orbit (LEO), generated thousands of pieces of space debris, significantly increasing the risk of further collisions. The Iridium 33 debris cloud has impacted space traffic management and orbital debris mitigation strategies, making it a subject of ongoing study in space situational awareness.

Loading next visibility...
Identifier
37971, 1993-036BPW
Orbit
LEO
Country
Flag of CISCIS
Related business
Manufacturer
Unknown
Mission
Spacecraft
Bus & Motor
Unknown
Mass
Unknown
Launch date (UTC)
1993-06-16 (33 years ago)
Launch vehicle
Unknown
Launch site
Plesetsk Missile And Space Complex (PKMTR)
Object type
Payload
Rocket body
Debris
Shape & HBR
Unknown shape, 0.1 m
Radar Cross Section
Small (<0.1 m²)

Expand to show TLE details & history
Last TLE update: 5 days ago

TLE from 5 days ago
0 COSMOS 2251 DEB
1 37971U 93036BPW 26029.46444294  .00009039  00000-0  23069-2 0  9997
2 37971  73.9939 312.0199 0064823  78.2002 282.6419 14.49365785613695
Epoch: 2026-01-29T11:08Z
TLE epoch observation values (Epoch: 2026-01-29T11:08:47.870Z)
Latitude
-0.00001°
Longitude
16.10368°
Altitude
720.548 km
Speed
7.5 km/s
True Right ascension
20h 48m 04s
True Declination
0° 00' 00"
Sunlit
Object was in daylight at epoch
Visualization orbit readout
Latitude
Unknown
Longitude
Unknown
Altitude
Unknown
Speed
Unknown
Apparent Right ascension
Unknown
Apparent Declination
Unknown
Sunlit
N/A
Visualization observer readout
Local Sidereal Time
00:18:22
Azimuth
Unknown
Elevation
Unknown
Doppler factor
Unknown
Orbital elements
Apogee altitude
771.38 km
Perigee altitude
679.287 km
Semi-major axis
7,103.47 km
Eccentricity
0.00648
Inclination
73.9939°
RAAN
312.0199°
Arg. of periapsis
78.2002°
True anomaly
281.91582°
Mean anomaly
282.6419°
Eccentric anomaly
282.27899°
Mean motion
3.62524 °/min
Orbital period
99.3 mins
BSTAR
0.0023069
Loading maneuver chart data...
Computing Atmospheric mass density...

Documentation

Showing up to 5 results
|